RH
4 5 5 6 6 5 5 6 6 7 8 8 9 10 12 16 20 22 22 25 24 23 22 26 34 40 48 56 66 69 84 97 95 100 99 97 96 94 97 91 86 79 72 61 56 59 53 36 26 22 19 17 15 13
4 4 5 5 5 5 5 6 6 7 9 9 10 12 15 20 21 21 27 27 26 26 32 38 39 43 50 57 64 82 89 92 92 99 97 96 100 96 88 79 73 66 60 61 61 45 29 23 19 17 16 13 10 10
4 5 5 4 5 5 6 6 7 8 10 10 12 15 19 20 25 28 29 29 29 30 34 43 51 67 71 77 84 94 100 100 100 100 99 97 93 82 80 72 61 63 59 47 34 28 22 20 18 15 12 11 11 10
4 4 4 4 5 6 6 7 8 11 13 14 15 17 22 28 27 28 30 32 34 36 54 62 71 76 78 81 82 84 93 94 96 97 91 85 84 78 78 70 61 55 46 28 22 25 21 19 15 14 13 12 12 11
5 4 5 5 6 6 7 8 10 12 13 12 17 23 28 27 27 30 32 35 47 57 70 72 76 78 76 76 83 83 86 90 87 82 81 75 70 72 60 56 51 40 29 24 23 21 19 17 14 15 15 14 15 16
4 4 6 6 6 7 8 9 12 12 13 20 24 25 26 30 32 33 33 48 62 68 68 70 72 77 81 86 85 84 86 91 86 74 67 60 49 42 39 37 32 31 29 21 19 19 17 16 16 17 17 17 16 16
5 6 6 7 8 8 9 10 12 15 22 23 25 29 32 33 33 33 43 54 60 63 67 77 82 87 87 89 88 85 81 78 70 57 44 39 35 32 26 24 26 24 22 19 18 18 16 16 17 17 16 17 18 21
6 8 8 8 8 9 10 12 15 24 22 24 30 32 34 36 35 39 51 56 61 74 78 78 83 83 87 85 83 79 64 54 44 41 38 31 26 23 21 20 18 20 20 18 16 17 16 18 18 18 16 18 20 23
6 7 8 9 9 9 12 18 24 24 24 29 34 35 37 37 35 41 50 52 64 70 70 79 84 79 79 68 56 50 46 43 37 32 28 26 25 22 16 17 18 19 18 16 14 15 17 17 19 17 16 18 21 25
6 7 8 9 10 10 18 24 26 25 29 34 37 39 40 36 37 43 48 55 59 68 76 68 64 64 56 52 51 47 39 30 23 26 26 20 16 14 15 14 15 14 14 14 14 14 15 19 20 17 17 16 18 22
6 7 8 10 11 13 21 25 25 24 29 36 39 39 37 37 35 36 46 54 61 59 54 57 57 54 54 51 45 34 28 25 23 19 16 14 13 12 11 12 12 12 13 12 12 13 14 14 16 17 18 17 20 26
6 8 8 9 11 17 24 26 24 26 36 38 39 38 39 39 37 43 50 57 55 56 54 57 57 56 50 42 36 29 25 20 16 14 12 11 10 10 10 10 11 11 11 12 11 12 14 15 17 18 17 17 31 42
6 8 9 10 12 19 24 23 25 34 39 41 44 42 43 45 52 53 46 46 51 57 56 57 54 49 44 35 27 22 20 17 14 12 11 10 10 9 10 10 11 12 13 13 13 14 15 16 15 18 24 34 35 40
6 8 9 12 14 18 22 23 30 38 42 45 43 46 47 49 45 43 47 52 50 52 52 48 49 44 32 26 22 20 17 14 12 12 11 10 9 9 10 10 10 11 11 12 12 12 12 14 16 19 27 29 33 38
7 8 9 12 14 18 22 25 30 35 43 46 46 47 44 42 45 45 46 49 47 48 49 44 36 30 25 21 20 17 15 13 13 11 10 9 9 9 9 10 10 10 10 11 12 13 14 15 15 19 27 31 40 52
8 9 10 12 15 18 23 28 33 37 44 47 44 41 40 43 45 48 48 49 56 52 43 36 32 26 21 20 18 17 15 14 12 11 10 9 9 9 10 11 11 12 13 13 13 14 15 16 23 34 46 61 75 88
7 9 10 13 16 18 21 27 34 41 44 46 46 47 48 49 50 50 54 53 49 44 38 30 27 21 23 20 18 17 15 13 12 10 10 10 11 12 13 14 14 15 16 17 21 26 35 41 52 66 81 91 96 98
8 8 10 12 15 18 22 25 27 34 40 44 46 48 48 50 52 52 52 47 42 36 29 26 24 22 22 19 18 16 15 15 14 12 12 13 14 17 19 20 22 25 28 32 36 47 59 71 81 89 93 95 89 86
8 8 9 12 14 18 20 24 29 36 39 44 47 52 53 51 50 48 44 40 36 32 26 25 24 23 21 19 18 16 15 17 16 15 15 16 20 22 22 26 33 33 42 61 70 82 86 86 89 89 87 85 89 94
8 10 11 12 15 17 20 24 30 35 40 43 46 46 46 46 45 42 37 33 31 28 26 27 24 23 20 19 18 16 17 16 17 17 19 24 26 26 35 42 41 62 70 80 84 83 87 87 84 86 91 94 94 91
8 10 11 13 14 14 15 20 24 26 30 33 36 37 37 37 34 31 29 28 27 26 28 27 24 22 21 19 17 17 18 18 18 20 25 28 29 39 45 54 75 78 83 84 85 90 82 85 92 97 95 94 91 91
7 8 9 11 11 12 13 15 18 18 20 24 25 26 27 27 26 25 21 22 23 25 29 25 21 21 19 18 17 19 20 20 21 28 28 33 39 54 70 80 85 87 85 89 88 83 87 92 92 90 92 92 93 96
8 9 9 9 9 10 12 13 14 15 17 18 20 22 22 22 22 20 19 21 24 26 25 19 19 19 18 17 18 20 22 21 26 30 37 43 57 78 83 86 88 88 87 91 90 88 88 86 86 90 92 97 100 100
8 8 10 11 12 12 13 14 15 16 16 17 16 16 18 18 18 17 19 22 24 21 18 15 18 18 17 17 18 22 22 22 29 37 46 59 84 89 88 92 92 87 88 92 90 88 84 81 89 94 98 98 96 93
7 8 8 9 9 11 11 12 12 12 12 14 14 15 16 16 16 17 19 19 16 14 13 16 18 16 16 17 19 23 22 24 34 46 56 75 86 92 95 96 90 90 94 93 92 91 85 86 92 93 93 91 87 84
6 7 8 8 9 10 10 10 11 12 12 12 12 13 13 14 16 16 15 12 12 13 15 16 15 14 17 17 19 25 24 29 40 47 70 81 90 96 95 92 92 95 94 91 90 93 89 87 90 89 85 84 82 78
8 8 8 9 9 9 9 10 10 10 10 11 12 12 13 13 13 12 11 11 13 14 14 14 14 16 18 18 23 27 29 36 44 59 76 84 91 91 90 93 95 95 91 87 88 89 85 84 83 82 78 77 77 75
5 5 6 7 7 6 7 7 7 8 9 9 10 11 11 11 11 10 10 12 13 14 13 13 14 18 17 19 24 29 35 41 54 66 77 85 88 90 95 99 99 95 89 84 82 80 79 78 78 75 70 70 72 73
7 6 5 5 6 6 7 8 8 8 8 8 9 9 9 9 9 8 10 12 13 13 14 14 16 17 17 20 25 32 36 47 60 73 82 89 87 86 91 94 95 92 87 83 77 75 74 72 70 66 65 69 71 70
7 7 8 8 8 6 6 6 7 7 7 7 8 8 8 8 8 9 11 12 12 11 12 14 16 18 17 19 26 32 38 50 61 68 79 84 85 85 88 90 89 85 78 75 73 71 69 68 68 65 64 67 68 69
6 7 7 7 7 8 9 10 10 10 10 10 10 10 10 11 11 12 13 13 12 11 12 14 16 17 17 18 23 29 36 48 58 64 68 70 75 79 80 81 82 81 77 72 70 68 65 64 63 63 64 66 68 69
8 8 8 8 8 7 7 8 9 10 12 13 13 13 13 13 13 12 12 12 13 14 14 15 16 16 18 20 22 26 32 42 53 58 59 60 63 68 72 74 73 70 66 65 63 62 62 62 62 61 62 63 64 65
7 7 8 9 10 10 9 9 8 9 9 10 11 11 11 11 10 9 11 12 12 12 13 15 16 17 17 18 20 24 30 37 44 49 52 54 56 57 58 58 59 59 58 58 57 58 58 58 58 58 59 59 58 57
Wind_Speed
31 32 31 31 34 35 34 34 35 35 33 34 36 38 38 38 39 39 36 33 32 30 30 29 29 30 31 33 34 33 35 35 35 37 38 37 36 38 40 42 44 45 45 44 39 37 37 36 37 37 36 35 35 34
29 29 29 34 35 33 31 33 34 34 34 36 38 38 38 39 40 35 33 32 31 31 31 31 29 29 30 32 32 32 34 37 35 35 36 36 38 41 43 43 43 43 40 35 32 32 34 33 32 31 32 31 30 29
29 29 35 34 32 32 33 34 34 35 36 36 38 40 41 39 36 36 34 33 32 32 31 29 29 29 29 31 31 32 34 37 38 38 39 40 43 41 42 41 37 36 34 31 28 29 30 29 28 28 28 27 25 23
29 33 32 31 33 34 34 35 36 37 38 41 42 41 40 40 38 36 35 34 33 31 30 30 29 30 31 31 30 31 32 35 39 40 40 40 39 38 39 37 33 31 29 30 26 28 26 27 25 24 24 22 21 22
32 31 30 34 36 38 38 38 40 41 42 41 41 42 42 39 36 34 34 33 32 31 31 31 30 29 29 29 30 30 31 32 33 34 35 36 35 35 33 29 28 29 29 28 26 26 26 25 23 21 21 20 21 22
31 30 33 34 36 38 39 40 41 40 38 41 44 43 38 36 35 35 34 33 32 30 30 31 29 28 27 27 29 29 28 30 32 33 32 32 31 28 27 25 26 27 29 28 26 27 25 24 22 20 20 20 23 25
31 33 34 35 38 39 40 40 41 40 43 45 42 40 39 38 37 37 36 34 32 29 27 27 27 26 26 27 28 29 30 30 31 30 29 27 27 26 25 24 25 27 28 29 27 27 24 23 22 20 20 22 23 24
36 37 36 38 40 40 40 40 41 44 45 43 41 40 38 36 35 34 33 31 29 27 27 26 26 26 26 26 27 29 29 29 28 28 27 27 27 27 26 25 25 28 30 31 28 25 24 21 22 20 21 23 25 27
36 38 39 39 41 40 40 42 45 45 43 43 41 39 37 36 34 33 32 30 29 28 26 26 28 27 27 27 27 27 27 27 27 26 27 27 29 29 28 27 28 30 30 30 28 24 23 22 22 22 23 24 26 27
35 39 40 40 39 38 42 45 47 45 44 42 40 38 35 33 32 31 30 28 28 25 26 27 26 25 25 24 24 25 26 26 25 24 28 29 29 28 29 27 27 28 27 28 25 22 20 21 21 22 25 24 27 28
35 37 39 40 40 42 46 47 47 45 44 42 41 38 35 32 31 29 27 26 26 26 24 23 23 22 22 24 25 24 24 24 24 27 29 28 28 26 25 23 24 23 24 23 21 19 18 18 20 21 22 22 25 28
36 37 38 39 40 44 47 48 46 43 43 41 38 35 33 29 27 26 26 26 25 23 21 21 20 21 22 24 24 23 25 25 27 25 25 23 22 20 19 19 19 19 18 17 15 13 13 13 15 18 18 18 19 28
34 36 37 39 41 44 46 46 43 42 41 38 36 34 31 30 29 28 27 24 21 20 20 20 20 21 24 25 24 23 24 25 23 20 18 16 15 15 15 14 14 14 15 17 17 17 17 17 18 19 17 18 17 15
34 36 36 38 41 44 44 43 44 43 42 39 37 35 32 31 29 26 23 22 21 20 20 20 22 25 26 25 23 23 22 20 16 13 13 13 13 14 15 16 16 16 16 16 18 18 19 21 20 20 19 15 14 13
32 34 36 39 40 42 43 42 42 42 40 39 37 35 34 30 28 25 22 21 20 19 20 23 25 26 25 21 20 19 17 14 11 10 12 12 12 13 12 13 13 14 15 16 17 16 16 16 15 13 14 12 9 8
31 33 36 38 39 40 41 42 42 41 41 39 37 35 31 29 26 25 23 21 21 23 25 26 24 23 20 18 17 15 12 10 10 10 11 11 10 10 11 11 12 14 14 15 15 15 15 14 13 12 12 11 7 5
31 33 35 37 38 39 40 41 41 40 40 38 36 32 31 29 27 25 24 25 26 26 25 24 22 18 17 17 13 11 9 8 8 9 10 9 9 10 12 14 15 16 16 15 16 16 17 17 16 13 9 6 6 8
28 29 32 35 37 37 37 38 38 39 38 36 34 33 31 29 27 27 27 27 27 26 24 21 19 16 15 13 11 11 10 8 9 10 11 11 12 14 15 15 17 17 19 20 19 18 17 13 10 9 7 5 7 10
27 28 29 32 34 34 34 35 35 36 36 35 34 33 32 31 31 30 29 27 26 25 22 19 18 14 14 12 11 12 11 10 11 14 14 16 18 19 19 19 19 20 19 19 18 15 13 11 10 6 4 5 8 11
26 27 28 30 33 35 36 36 36 36 37 37 36 35 34 32 31 30 28 27 25 23 20 18 17 15 14 13 14 13 12 12 14 18 19 20 21 21 21 19 19 19 19 17 15 13 12 9 6 4 5 8 13 17
25 27 28 30 33 33 35 35 37 37 39 38 36 34 33 32 31 30 29 27 24 21 20 19 18 16 17 16 15 15 14 16 20 23 23 25 24 22 21 21 18 17 16 14 14 12 9 7 6 8 11 15 19 23
22 25 27 29 31 32 34 34 35 36 36 35 34 33 32 32 31 30 28 25 22 20 20 22 19 19 19 17 18 17 18 22 25 26 26 25 23 24 22 20 19 17 16 15 12 11 9 9 10 13 16 19 23 27
19 20 21 23 23 23 26 28 29 29 31 32 31 32 31 30 29 28 24 21 21 22 24 22 20 20 20 20 20 19 22 27 29 28 27 25 25 25 23 21 20 18 17 15 14 13 12 12 13 15 17 22 26 31
18 19 20 20 22 23 24 26 27 28 28 29 29 28 27 26 24 23 22 22 24 25 25 20 20 22 21 23 23 23 26 30 30 29 28 28 27 26 23 21 20 19 16 17 16 16 15 16 16 19 23 27 32 35
17 17 18 19 19 21 22 23 24 23 22 22 23 24 25 24 23 21 23 26 26 24 21 20 23 23 22 26 25 26 28 30 31 30 30 29 28 26 25 23 22 20 19 19 19 19 19 20 22 25 28 32 36 39
9 8 16 14 17 20 20 20 20 22 22 22 22 22 22 22 22 24 27 25 22 20 21 23 24 22 24 28 26 28 30 32 30 30 30 30 29 28 27 25 23 22 23 23 23 22 23 24 26 30 33 36 39 42
11 10 13 11 13 14 15 16 17 18 19 19 19 19 20 22 23 25 24 21 20 22 24 24 24 24 27 28 28 31 32 31 32 32 31 31 31 30 28 26 26 26 26 26 26 27 28 29 31 34 37 40 42 45
9 12 13 12 12 12 13 14 14 14 15 17 17 19 20 21 23 22 20 20 22 23 23 24 25 27 30 29 30 32 33 32 33 33 33 32 32 31 30 30 30 30 31 31 31 32 33 34 35 37 40 42 45 48
4 4 5 8 10 12 12 13 15 16 17 17 18 19 20 20 21 19 20 22 23 23 23 24 25 29 31 31 32 34 34 34 35 35 34 34 33 33 33 33 33 34 34 35 35 36 36 37 38 40 42 44 46 51
8 11 10 9 7 9 11 12 12 13 15 16 17 18 18 18 18 19 19 21 23 23 23 24 26 29 32 32 34 35 35 35 36 37 37 37 36 35 35 36 37 37 36 37 38 39 40 40 41 43 44 46 49 52
7 9 9 11 14 16 17 15 12 11 11 13 14 16 17 17 18 18 19 21 21 21 22 23 25 28 30 32 33 35 35 36 37 38 38 38 38 38 38 38 39 39 39 39 40 41 42 42 43 45 46 47 51 54
8 9 11 12 14 15 15 15 17 18 19 19 19 19 20 20 21 21 21 21 22 22 23 24 25 27 28 30 32 33 35 35 37 39 40 39 39 40 40 40 40 40 40 40 41 41 41 42 43 44 46 48 52 55
8 9 10 13 14 14 14 16 17 18 20 21 22 23 23 22 22 21 20 21 22 24 24 25 26 27 29 30 30 32 33 34 36 37 38 39 40 41 40 40 40 40 41 41 42 42 42 42 43 45 47 51 53 54
Wind_Direction
224 222 221 218 217 216 214 211 208 205 202 199 198 198 196 193 194 198 202 205 210 213 216 218 218 217 218 224 226 227 225 227 227 230 236 239 243 248 253 257 261 265 270 276 281 282 279 276 277 277 276 273 272 270
218 212 206 208 209 207 203 201 200 198 196 194 194 193 190 191 195 195 196 202 207 209 211 212 215 217 219 218 219 222 224 227 231 234 242 247 252 255 258 262 267 273 277 282 278 276 272 273 274 275 275 272 269 265
205 200 202 203 200 198 195 195 192 191 190 191 189 187 189 190 189 191 195 200 203 206 207 209 211 212 214 214 219 224 227 232 236 240 246 250 253 258 265 270 273 277 279 275 272 269 273 276 275 273 270 268 265 262
195 200 201 194 190 189 189 188 186 185 184 186 187 186 185 186 188 191 194 197 199 201 201 201 203 207 210 213 218 222 227 234 240 246 251 256 260 263 267 271 275 275 274 273 272 275 277 277 275 271 266 262 263 263
195 198 190 189 185 185 185 184 184 184 185 185 181 181 185 186 188 190 193 194 195 197 201 203 207 211 215 220 228 234 238 242 247 252 255 257 260 264 267 272 273 272 272 273 275 274 276 273 270 262 259 258 255 249
194 185 186 186 184 182 182 182 183 183 180 179 181 183 183 184 187 190 192 191 194 197 201 206 211 217 222 230 234 239 243 246 249 253 256 260 263 267 269 267 267 271 274 274 273 275 271 268 263 254 253 252 245 246
186 185 184 183 182 181 182 181 181 176 177 181 181 181 183 185 188 190 190 192 195 199 203 209 214 219 225 231 237 242 247 251 255 259 264 267 268 267 265 267 268 272 272 272 271 268 264 258 253 249 245 243 242 234
180 180 180 182 181 180 178 178 174 176 180 179 180 182 184 186 188 189 192 195 198 204 208 213 219 226 231 237 243 247 252 256 261 266 269 270 272 271 269 269 271 270 268 267 264 259 255 249 248 242 240 236 232 231
180 179 178 179 180 178 174 173 175 178 180 179 182 183 185 187 187 189 194 197 202 206 210 217 223 229 235 242 248 253 258 262 264 267 271 273 272 273 273 270 268 263 260 259 257 251 246 242 240 240 236 234 231 232
177 177 176 177 178 174 171 173 178 180 180 181 183 185 186 187 189 192 197 198 205 209 217 223 228 235 243 250 255 258 263 268 275 279 275 274 273 270 266 264 259 255 253 252 250 243 236 232 234 237 239 242 236 233
174 175 177 176 175 171 172 177 181 182 181 183 185 186 187 188 190 193 197 201 206 213 220 227 234 242 249 256 261 267 273 280 283 277 274 273 270 265 262 256 252 248 243 244 243 239 234 229 233 231 234 242 243 236
171 174 176 176 174 173 176 179 183 181 183 186 186 187 188 189 191 194 199 204 210 216 224 231 240 249 256 265 271 280 286 283 280 277 273 268 260 253 246 241 236 237 238 242 238 230 225 224 225 222 222 232 235 228
171 174 174 176 175 176 179 182 182 181 186 187 188 188 188 190 193 197 203 206 212 220 229 238 247 258 265 272 280 285 281 279 277 272 264 256 247 241 237 231 226 221 219 221 222 217 210 205 208 203 205 212 230 234
170 175 175 175 177 179 182 182 182 184 187 189 188 188 191 196 200 202 206 211 217 226 236 246 255 260 268 275 282 282 281 279 271 259 248 238 230 222 218 216 216 217 215 214 215 214 212 210 207 201 204 209 217 225
171 174 177 178 180 181 182 183 184 186 189 191 192 195 199 200 202 206 211 218 225 235 246 252 257 264 272 278 281 281 281 273 261 251 237 224 216 209 207 207 206 206 203 200 203 204 202 203 202 193 190 194 196 209
172 176 179 181 182 182 184 186 187 189 192 194 197 199 200 203 207 211 218 226 236 240 247 253 260 268 278 280 280 277 264 252 246 239 230 220 212 198 199 197 192 189 182 182 186 186 179 166 162 160 162 169 180 220
174 179 180 182 184 186 187 188 190 192 194 197 200 201 205 209 214 219 225 231 236 242 249 256 264 276 277 278 274 258 245 239 234 229 217 204 192 188 177 174 173 170 163 160 157 154 155 159 161 155 154 186 220 248
175 180 183 183 184 186 188 191 192 194 197 200 202 206 211 215 220 224 227 230 235 243 251 260 270 270 269 266 249 234 224 218 219 209 188 181 174 169 170 167 159 156 155 156 159 159 155 151 155 170 183 222 269 290
173 179 182 183 185 186 187 190 194 198 201 203 206 210 216 219 222 224 227 232 238 246 255 262 264 263 260 245 230 220 211 211 208 194 185 176 172 175 169 163 162 160 161 157 154 156 164 174 181 193 225 275 310 315
172 177 183 186 188 189 190 192 194 198 203 207 209 213 216 220 223 227 232 238 244 250 256 257 255 251 243 226 219 212 199 202 198 186 178 174 179 174 163 165 167 166 164 163 170 179 186 192 201 229 275 302 311 315
174 178 184 188 192 194 194 195 199 202 205 209 212 216 219 223 227 231 236 240 245 249 252 249 247 237 227 214 213 198 195 196 192 182 178 177 175 168 169 171 171 173 173 182 189 191 201 216 242 278 294 301 310 318
171 179 185 191 197 200 202 202 205 207 210 213 216 218 222 226 230 234 237 240 244 245 243 242 235 227 219 214 205 195 196 195 186 178 178 176 174 173 175 177 179 187 196 198 204 213 229 255 279 294 300 308 316 318
175 180 186 190 195 198 201 206 210 212 214 216 218 221 225 229 233 236 238 239 237 235 235 233 225 221 216 211 200 199 197 194 184 182 181 180 181 181 183 187 194 203 207 213 223 239 256 274 287 300 310 317 319 320
177 182 185 189 194 198 202 206 209 212 216 218 220 223 225 228 231 233 233 231 230 230 230 224 216 216 213 208 198 200 200 194 188 187 186 186 187 189 193 200 209 216 222 229 241 255 269 282 294 305 313 315 317 318
175 183 188 192 192 196 201 206 212 215 218 221 223 223 225 226 227 227 225 226 227 226 222 212 213 213 212 206 197 200 204 198 194 191 190 192 193 197 204 212 220 227 233 242 254 264 275 286 296 303 308 312 314 318
167 187 193 196 199 203 205 206 209 212 215 217 219 221 223 223 222 220 223 223 221 218 210 209 213 208 208 204 198 202 206 201 199 197 196 198 201 207 215 220 227 234 242 251 260 268 277 286 294 301 306 310 314 319
161 163 176 190 194 201 206 209 212 214 215 217 218 218 217 218 218 221 222 220 214 210 209 209 208 205 207 204 200 203 205 203 202 201 203 205 211 219 226 231 237 243 250 259 266 273 280 287 294 301 305 309 314 319
180 178 180 186 189 193 198 203 205 206 206 209 210 211 213 214 216 218 216 208 208 209 208 210 206 207 209 203 201 204 207 208 206 208 210 214 220 226 232 238 245 250 256 263 269 275 280 287 294 299 304 309 315 319
167 193 206 198 194 192 193 197 201 205 206 205 206 208 210 212 214 213 205 204 206 209 211 212 212 214 212 206 205 207 211 212 212 215 218 222 228 233 238 243 249 256 262 268 274 279 284 289 295 301 305 310 316 320
190 178 170 173 193 202 198 196 197 197 200 201 205 208 210 212 213 210 208 211 212 211 213 213 215 218 216 212 209 212 215 217 219 220 223 227 233 239 244 248 253 260 268 274 277 281 287 293 298 302 307 312 315 319
206 199 201 202 195 189 188 188 190 194 199 205 210 212 212 213 214 213 214 217 221 221 221 219 217 219 221 219 217 217 221 223 225 226 230 234 238 243 249 254 260 266 272 279 283 286 290 295 300 303 308 313 315 318
217 210 211 213 215 214 213 207 200 196 197 199 203 208 212 214 214 213 215 217 221 225 225 227 225 224 225 225 225 226 228 231 233 233 236 240 244 249 254 259 265 270 276 280 285 290 294 298 301 305 309 311 314 316
234 227 222 220 226 228 227 228 226 218 213 211 211 214 217 217 217 211 215 221 226 227 227 226 228 229 231 234 234 233 234 238 240 242 244 248 251 254 259 263 268 273 277 281 286 291 294 299 302 305 308 310 312 314